Wind_Speed
14 14 12 11 9 9 7 6 6 7 8 8 7 6 6 6 7 6 6 6 5 5 5 6 7 7 7 7 8 7 7 6 5 6 7 9 11 11 11 11 11 11 12
16 17 18 17 12 10 9 7 7 9 10 10 8 8 7 7 7 8 8 7 8 7 7 7 6 6 6 6 5 3 3 5 6 6 7 8 9 10 10 10 11 12 13
19 22 21 23 16 13 11 9 9 10 12 11 9 8 8 7 7 6 6 7 7 7 6 6 5 4 1 1 2 4 4 4 4 4 6 7 7 8 9 10 10 11 13
23 24 25 24 20 17 14 11 11 12 12 11 10 9 8 6 6 7 7 7 7 6 5 4 4 3 2 1 2 2 2 2 1 3 5 5 8 10 11 13 14 14 14
25 25 26 27 23 18 16 13 12 12 13 12 10 10 9 8 7 8 8 7 6 5 6 6 6 5 4 3 3 3 4 5 5 7 9 10 12 14 15 15 16 17 17
26 26 27 26 24 18 18 15 13 13 13 12 10 10 9 9 9 8 7 6 7 7 7 8 7 6 5 5 5 5 7 7 8 9 14 13 16 18 19 20 20 21 21
23 27 24 26 24 20 20 17 14 13 13 11 10 10 10 8 9 7 7 7 7 7 8 8 8 7 6 6 8 8 7 9 10 10 12 14 16 17 19 21 21 23 24
23 27 25 25 22 22 20 20 16 14 13 12 9 11 12 10 10 9 9 10 10 10 10 10 10 10 10 9 9 9 10 10 11 11 12 15 17 19 20 22 23 25 27
30 28 26 26 25 24 22 21 18 16 14 13 11 10 14 14 12 13 13 13 13 13 13 12 12 12 13 12 11 12 12 13 13 16 17 19 22 24 25 26 27 28 30
33 31 27 26 27 26 24 23 21 19 17 15 14 13 13 15 17 16 16 17 17 17 17 17 17 16 15 15 16 16 17 17 17 21 23 24 26 27 28 29 30 33 33
35 33 31 28 27 28 26 24 23 22 20 19 17 15 16 15 17 20 20 19 20 21 21 21 19 19 20 19 20 20 21 20 24 26 27 28 29 30 31 32 34 36 36
39 36 33 31 28 29 26 26 25 23 22 22 20 19 18 19 19 20 22 24 23 23 24 24 23 23 23 23 24 25 26 24 29 30 31 32 33 34 35 36 37 38 37
41 35 36 32 29 28 27 26 25 24 24 25 24 23 22 22 22 23 24 26 28 29 28 28 27 27 26 27 27 29 30 29 34 35 36 36 37 37 38 39 40 39 39
43 38 37 36 31 29 25 26 28 27 27 27 26 26 26 26 26 26 27 27 28 30 31 32 31 30 30 31 31 32 34 33 35 39 39 39 40 41 42 43 43 41 42
45 42 41 39 33 31 28 29 30 30 30 29 28 27 28 29 30 30 30 31 31 31 33 34 35 35 34 34 36 37 39 40 38 40 41 42 42 43 44 45 46 44 45
46 45 45 41 36 35 33 34 34 35 35 32 32 30 29 30 33 34 34 35 36 36 35 35 37 38 38 37 38 38 40 42 41 40 43 44 45 45 46 47 47 45 44
46 50 48 45 40 40 39 39 37 38 38 36 34 34 33 32 34 36 36 38 40 40 39 39 38 38 38 38 39 41 41 42 43 45 44 44 46 47 48 49 46 46 44
44 45 51 49 47 45 43 42 40 40 39 39 35 37 37 36 37 38 39 39 41 42 42 42 42 42 41 40 40 41 41 43 44 46 47 48 47 47 50 49 48 48 45
49 45 49 51 51 48 48 44 44 40 41 41 40 40 38 40 40 40 40 40 39 40 41 42 44 43 43 43 42 41 41 43 44 45 46 48 50 50 51 50 49 48 47
51 48 45 49 50 50 50 46 46 41 44 41 43 43 44 42 41 40 38 39 37 39 42 44 44 43 44 43 40 41 42 43 45 45 47 49 51 52 51 49 50 49 45
47 48 43 46 46 49 49 47 45 42 46 45 47 48 45 45 43 41 38 40 39 40 43 45 44 44 44 42 41 42 44 46 46 46 48 50 51 51 48 50 51 45 41
46 50 42 45 47 48 51 47 51 47 50 49 51 47 49 46 42 40 40 41 41 38 41 42 42 42 43 43 44 44 45 45 46 48 51 51 53 49 49 50 48 43 42
47 56 50 47 47 48 52 54 54 54 54 52 51 48 49 45 46 46 44 43 41 40 42 44 44 44 44 45 45 45 44 46 46 50 50 52 52 50 49 47 40 40 42
38 48 51 48 48 51 55 57 57 56 57 56 54 51 52 50 50 49 48 46 46 45 44 44 45 45 44 44 44 45 48 50 52 52 52 53 54 51 47 42 40 42 45
31 43 46 48 50 51 54 58 58 59 59 58 56 54 54 53 50 50 50 50 53 49 47 44 45 46 46 45 47 49 51 53 55 56 56 57 53 50 43 43 43 46 49
41 34 40 39 43 46 47 52 54 56 57 57 57 60 56 53 53 55 56 56 51 51 50 47 47 50 51 51 51 53 54 56 57 60 62 64 57 47 44 45 48 50 51
Wind_Direction
297 310 312 315 315 318 317 329 332 323 313 305 305 290 276 261 252 248 252 256 262 264 275 285 289 296 303 306 305 308 316 326 347 8 27 37 37 32 28 26 23 13 11
284 298 306 316 301 302 296 302 317 323 319 303 292 281 272 264 258 254 254 259 261 264 269 278 283 284 288 296 310 341 17 27 41 46 42 40 33 23 14 6 359 357 357
279 295 301 310 297 295 285 294 308 317 315 302 292 287 279 277 279 276 268 262 260 262 264 268 270 267 255 87 33 16 14 14 23 43 46 1 6 351 345 344 341 344 345
285 291 297 302 293 283 281 289 300 314 315 305 300 295 296 283 281 279 265 257 255 251 236 221 206 188 181 238 289 305 322 352 50 312 337 331 326 327 324 328 328 327 329
281 290 297 297 292 277 278 284 294 302 309 306 303 297 302 288 270 270 266 255 244 216 190 190 188 197 226 246 259 278 290 290 300 313 319 317 316 316 318 318 320 322 323
283 290 295 293 291 278 278 279 288 293 304 307 299 293 301 288 260 255 255 238 231 220 205 196 201 220 243 261 268 289 299 302 311 318 315 320 314 319 318 318 319 322 322
280 283 292 293 288 276 277 277 281 287 297 303 302 291 293 287 259 239 246 246 248 240 228 217 225 234 253 268 275 285 293 300 303 314 309 317 316 313 318 317 320 317 315
280 277 283 291 285 276 273 274 274 282 288 297 297 299 287 283 269 251 249 259 263 260 251 243 243 248 262 271 277 278 287 290 300 299 300 303 307 310 313 312 313 314 313
271 275 276 285 283 271 272 272 271 276 281 289 290 289 292 285 276 269 262 266 274 274 267 262 264 261 266 272 270 280 282 285 293 297 304 310 315 317 317 313 314 314 312
265 270 272 275 280 272 270 272 271 274 278 282 286 286 282 284 279 271 266 267 271 273 274 267 266 263 266 266 266 272 278 287 293 299 307 310 315 317 313 313 312 313 313
266 269 269 270 273 273 267 268 271 273 275 278 281 285 284 280 279 277 272 267 270 272 276 269 263 262 264 265 265 273 280 290 295 298 299 304 309 311 312 311 312 311 311
263 267 266 267 268 269 262 265 269 273 274 272 275 279 281 279 274 276 277 275 274 270 273 269 265 264 265 268 270 274 279 285 285 290 294 300 303 307 310 311 308 308 307
262 261 265 266 264 264 259 262 267 272 272 272 274 273 275 277 278 274 273 276 277 277 274 271 268 267 268 270 272 275 278 282 286 288 292 296 300 304 306 307 307 307 306
260 261 263 266 263 262 260 262 266 271 272 271 272 272 271 272 274 276 277 273 275 278 277 273 271 270 272 273 275 277 279 281 285 288 293 296 299 302 304 305 307 307 310
255 258 262 267 262 261 259 266 268 270 273 275 274 273 272 270 270 272 273 276 275 274 275 275 274 274 275 277 279 281 282 283 284 288 291 294 298 300 302 305 308 308 310
251 254 260 261 262 259 259 265 266 268 271 274 275 277 274 275 274 271 271 272 273 274 274 274 276 276 279 281 283 284 284 284 285 287 291 294 296 299 302 305 306 307 308
252 253 257 259 257 262 260 264 267 265 269 271 272 274 276 277 275 274 272 271 272 272 274 274 275 275 275 277 279 280 282 282 285 288 290 292 296 299 302 306 304 306 308
248 252 256 257 258 257 260 264 265 264 266 269 272 275 276 278 276 276 274 272 272 274 275 274 274 276 277 276 275 276 279 282 285 288 290 292 295 300 301 302 303 304 309
256 247 249 255 255 257 260 264 266 263 264 268 274 276 277 277 277 277 276 276 276 277 277 276 275 276 278 279 279 279 278 280 283 287 290 292 294 297 302 300 303 305 309
256 249 248 251 257 258 259 260 263 264 266 271 272 275 277 275 277 280 277 277 276 276 275 274 275 277 278 280 280 278 279 281 283 287 289 292 295 297 299 301 303 304 307
257 257 251 252 254 255 256 257 260 264 267 267 268 268 276 276 278 277 275 272 272 273 276 276 277 277 278 278 278 280 282 283 285 287 290 291 293 298 298 300 301 302 301
259 261 253 252 251 251 254 254 262 263 264 264 266 272 274 275 275 273 269 268 270 274 275 277 275 274 275 277 280 281 281 283 288 289 289 290 291 295 297 297 300 300 302
252 257 255 251 250 251 253 253 256 259 262 264 268 271 270 271 269 267 268 269 273 273 274 274 274 275 277 278 279 280 282 284 285 286 289 290 292 294 294 295 294 296 296
251 252 253 254 255 254 253 253 255 257 260 261 261 261 264 265 266 267 267 269 271 271 273 275 278 277 277 277 281 284 284 285 286 288 290 291 293 292 291 292 291 293 291
260 257 256 253 254 254 256 255 255 256 259 261 260 259 261 261 264 265 268 271 273 272 275 279 280 280 279 282 283 284 285 288 291 293 291 292 289 289 289 291 292 289 282
262 252 261 260 257 256 260 261 260 260 262 262 261 260 260 259 260 265 269 278 269 275 276 280 285 284 283 283 285 285 288 290 292 293 293 294 289 282 285 290 289 284 283
Height
5858 5857 5856 5855 5854 5853 5852 5851 5851 5850 5850 5848 5848 5847 5847 5847 5847 5847 5847 5848 5848 5848 5848 5848 5848 5848 5848 5849 5848 5848 5848 5848 5848 5848 5848 5849 5847 5847 5847 5847 5847 5847 5847
5856 5855 5854 5854 5853 5851 5851 5850 5849 5849 5848 5847 5846 5846 5845 5845 5845 5845 5845 5846 5846 5847 5847 5847 5847 5848 5848 5848 5848 5847 5847 5847 5847 5848 5848 5847 5847 5847 5847 5847 5847 5847 5846
5853 5853 5852 5852 5851 5849 5849 5847 5847 5846 5846 5845 5844 5844 5843 5843 5843 5843 5844 5844 5844 5845 5845 5845 5846 5846 5846 5846 5847 5847 5847 5847 5848 5848 5847 5846 5847 5847 5846 5846 5846 5846 5845
5851 5851 5850 5849 5848 5848 5847 5845 5844 5844 5843 5843 5842 5841 5841 5841 5841 5841 5842 5842 5843 5843 5843 5844 5844 5845 5845 5846 5846 5846 5846 5847 5847 5846 5846 5847 5846 5846 5845 5845 5844 5844 5843
5849 5848 5847 5846 5846 5845 5844 5843 5842 5842 5841 5840 5839 5839 5839 5839 5839 5840 5840 5841 5841 5842 5842 5843 5843 5844 5844 5845 5845 5845 5845 5845 5846 5845 5845 5845 5845 5844 5843 5843 5842 5841 5841
5846 5845 5845 5843 5843 5843 5842 5841 5840 5840 5838 5837 5837 5837 5836 5837 5837 5838 5839 5840 5841 5841 5841 5842 5842 5843 5843 5843 5844 5844 5844 5844 5845 5845 5842 5843 5841 5841 5840 5840 5839 5838 5838
5844 5842 5842 5841 5840 5840 5839 5839 5838 5838 5836 5835 5835 5835 5836 5836 5836 5836 5838 5838 5839 5840 5840 5840 5841 5841 5841 5842 5842 5842 5842 5841 5841 5842 5841 5841 5840 5839 5838 5837 5836 5836 5834
5841 5838 5838 5838 5836 5837 5836 5836 5835 5835 5834 5833 5832 5833 5834 5834 5834 5835 5836 5837 5837 5838 5838 5838 5839 5839 5839 5840 5840 5839 5839 5839 5839 5840 5840 5838 5837 5836 5836 5834 5833 5832 5831
5835 5834 5834 5833 5833 5834 5833 5833 5832 5832 5831 5831 5830 5829 5831 5831 5831 5833 5833 5834 5835 5835 5835 5836 5836 5836 5837 5837 5837 5837 5837 5837 5837 5835 5836 5835 5833 5832 5832 5830 5829 5828 5827
5829 5829 5830 5829 5829 5830 5829 5829 5828 5828 5828 5827 5827 5827 5827 5828 5829 5829 5830 5831 5831 5832 5832 5832 5833 5833 5833 5834 5833 5833 5833 5833 5834 5831 5831 5830 5829 5828 5827 5825 5824 5822 5821
5823 5824 5824 5825 5825 5825 5825 5824 5824 5824 5824 5824 5823 5823 5824 5824 5825 5826 5827 5826 5827 5828 5828 5829 5829 5829 5829 5829 5829 5829 5828 5830 5827 5827 5827 5826 5824 5823 5822 5820 5819 5816 5815
5817 5818 5819 5820 5820 5819 5820 5820 5820 5820 5820 5819 5819 5820 5821 5821 5821 5822 5823 5823 5823 5823 5824 5824 5824 5825 5824 5824 5824 5824 5824 5825 5824 5822 5821 5820 5819 5818 5816 5815 5813 5811 5810
5811 5812 5814 5814 5815 5814 5815 5815 5815 5815 5815 5815 5815 5815 5816 5816 5817 5817 5817 5818 5819 5819 5818 5819 5820 5820 5820 5820 5819 5818 5818 5821 5817 5816 5815 5814 5813 5811 5810 5809 5807 5805 5804
5805 5806 5808 5808 5810 5810 5810 5810 5810 5811 5811 5810 5810 5811 5811 5811 5812 5812 5812 5812 5812 5813 5813 5814 5814 5814 5814 5814 5813 5813 5812 5814 5813 5809 5809 5808 5806 5805 5803 5802 5800 5798 5796
5798 5799 5800 5802 5803 5804 5805 5805 5806 5806 5806 5806 5805 5806 5805 5806 5806 5806 5806 5807 5806 5806 5807 5808 5808 5808 5808 5808 5807 5806 5806 5805 5807 5804 5802 5801 5799 5798 5796 5793 5791 5789 5787
5790 5791 5792 5794 5796 5797 5800 5797 5799 5799 5799 5800 5800 5801 5800 5800 5800 5800 5800 5800 5801 5800 5800 5800 5801 5801 5801 5800 5800 5800 5799 5797 5797 5798 5795 5793 5791 5790 5788 5786 5783 5780 5778
5783 5783 5784 5786 5788 5788 5791 5791 5792 5792 5793 5793 5794 5794 5793 5794 5793 5793 5793 5793 5793 5793 5794 5793 5793 5793 5793 5793 5792 5792 5791 5790 5788 5788 5789 5786 5783 5781 5779 5777 5774 5772 5770
5773 5776 5775 5777 5779 5779 5781 5783 5784 5785 5786 5786 5787 5785 5786 5786 5785 5785 5785 5785 5785 5785 5786 5786 5785 5785 5785 5784 5784 5784 5783 5781 5780 5779 5778 5777 5775 5773 5770 5768 5765 5763 5760
5761 5766 5766 5767 5769 5769 5771 5774 5775 5777 5777 5779 5780 5778 5778 5778 5777 5777 5777 5777 5777 5777 5777 5777 5776 5776 5776 5776 5776 5776 5775 5773 5772 5771 5769 5766 5765 5764 5761 5759 5756 5754 5750
5748 5754 5756 5756 5758 5761 5761 5765 5765 5768 5768 5771 5771 5770 5769 5769 5768 5768 5769 5768 5768 5768 5768 5767 5768 5768 5767 5766 5767 5766 5765 5763 5762 5761 5760 5758 5755 5754 5753 5750 5746 5743 5740
5736 5740 5749 5747 5749 5750 5751 5754 5755 5759 5758 5760 5760 5760 5760 5760 5759 5759 5760 5758 5759 5759 5759 5759 5759 5758 5758 5757 5757 5756 5755 5753 5752 5751 5750 5748 5746 5743 5741 5739 5738 5735 5732
5729 5725 5736 5737 5737 5740 5740 5744 5745 5747 5747 5748 5749 5752 5750 5750 5750 5749 5750 5748 5749 5750 5749 5750 5748 5748 5747 5747 5746 5745 5744 5744 5742 5741 5740 5738 5734 5733 5730 5727 5725 5723 5722
5718 5715 5721 5726 5727 5729 5730 5731 5733 5736 5735 5737 5739 5742 5740 5740 5739 5739 5740 5739 5740 5740 5739 5739 5738 5738 5737 5737 5736 5735 5734 5734 5734 5731 5729 5727 5724 5721 5719 5716 5712 5710 5709
5708 5706 5708 5713 5715 5717 5718 5718 5720 5723 5724 5726 5726 5729 5728 5729 5728 5728 5728 5730 5729 5729 5729 5728 5728 5728 5728 5726 5725 5723 5722 5721 5720 5720 5718 5715 5711 5709 5705 5704 5701 5698 5696
5697 5694 5697 5702 5702 5704 5706 5707 5708 5710 5712 5714 5715 5717 5716 5717 5717 5718 5718 5719 5719 5720 5719 5718 5718 5717 5716 5716 5714 5712 5711 5709 5707 5705 5703 5702 5700 5696 5693 5691 5689 5687 5683
5683 5686 5685 5688 5690 5693 5695 5695 5696 5699 5701 5703 5704 5703 5705 5706 5706 5706 5707 5707 5707 5708 5709 5708 5707 5706 5706 5705 5703 5701 5699 5697 5694 5691 5687 5686 5686 5686 5681 5678 5675 5673 5671